Location: Privas
(44.7330°N, 4.6000°E)
Time: 02:26:22
(UTC+02:00)

ISS - Visible Passes

Search period start: 16 September 2019 00:00
Search period end: 26 September 2019 00:00
Orbit: 411 x 421 km, 51.6° (Epoch: 16 September)

Date Brightness Start Highest point End Pass type
(mag) Time Alt. Az. Time Alt. Az. Time Alt. Az.
16 Sep -1.6 06:20:23 12° SSW 06:20:23 12° SSW 06:21:04 10° SSW visible
18 Sep -1.9 21:23:36 10° SSW 21:24:55 19° S 21:24:55 19° S visible
19 Sep -2.1 20:35:53 10° S 20:38:12 18° SE 20:39:17 16° ESE visible
19 Sep -1.2 22:11:19 10° WSW 22:12:14 17° WSW 22:12:14 17° WSW visible
20 Sep -4.0 21:22:50 10° SW 21:26:09 74° SE 21:26:20 71° ESE visible
21 Sep -3.4 20:34:31 10° SW 20:37:42 44° SE 20:40:13 15° ENE visible
21 Sep -1.5 22:11:22 10° W 22:13:08 25° WNW 22:13:08 25° WNW visible
22 Sep -3.1 21:22:39 10° WSW 21:25:53 50° NNW 21:26:50 37° NNE visible
23 Sep -3.7 20:34:01 10° WSW 20:37:20 75° NNW 20:40:23 12° ENE visible
23 Sep -1.2 22:11:34 10° WNW 22:13:17 21° NW 22:13:17 21° NW visible
24 Sep -2.2 21:22:45 10° W 21:25:46 31° NNW 21:26:45 25° NNE visible
25 Sep -2.6 20:33:57 10° W 20:37:06 38° NNW 20:40:07 11° NE visible
25 Sep -1.0 22:11:39 10° NW 22:13:01 18° NW 22:13:01 18° NW visible
